Lid_Strength_Index
7 7 9 9 9 9 10 10 10 10 10 10 11 11 12 12 12 12 12 12 12 12 12 12 12 11 12 11 10 10 10 9 6 16 16 15 16 16 16 15 14 14 13
8 9 9 9 10 11 11 11 11 11 12 12 11 12 12 13 13 13 14 13 13 14 13 13 13 12 12 12 12 13 13 13 13 16 17 17 17 17 16 16 16 15 16
10 10 11 11 11 12 12 11 12 12 13 12 13 13 13 14 14 14 14 14 14 14 14 14 14 13 14 13 13 14 14 14 14 15 17 17 17 17 17 17 17 17 16
11 11 12 12 13 13 13 13 13 13 13 14 14 14 14 14 14 14 15 15 16 16 15 15 15 15 15 15 14 15 14 15 15 16 17 18 18 17 17 18 18 18 18
12 12 13 13 14 14 14 13 15 14 14 14 14 14 14 14 15 15 15 16 16 17 17 17 16 16 15 15 15 16 15 15 15 16 17 17 18 18 18 18 18 19 19
13 14 14 14 15 15 15 15 14 15 15 15 15 15 15 15 15 15 16 17 18 18 19 19 19 18 16 15 15 15 16 16 16 17 18 18 19 19 19 19 19 19 20
15 14 14 15 15 16 15 16 16 16 16 16 16 16 16 15 14 15 16 17 17 18 18 18 19 18 18 18 17 17 17 16 16 18 19 20 20 20 19 19 20 20 20
16 16 16 16 16 16 16 17 17 17 16 16 16 16 16 15 15 15 16 17 17 17 18 18 18 18 18 18 19 19 18 17 18 18 19 20 19 19 19 19 20 20 20
17 17 17 16 16 16 17 17 17 16 17 17 17 16 16 16 15 15 16 17 17 18 17 17 17 17 15 16 18 19 19 19 15 15 15 15 15 16 18 19 22 23 25
18 17 16 16 17 17 17 17 17 17 17 16 16 16 17 16 14 15 16 17 17 17 17 16 15 16 15 15 17 18 19 19 18 18 18 17 17 16 16 18 20 23 24
18 18 18 17 17 17 18 18 17 17 17 18 18 18 17 17 15 14 14 16 17 17 17 16 15 13 13 13 14 16 17 17 17 19 19 19 18 18 18 17 17 19 22
19 19 19 18 17 17 18 18 19 19 19 20 19 17 17 16 13 12 12 13 14 16 16 16 15 12 12 12 14 13 14 17 21 21 20 20 19 19 18 19 20 19 19
22 22 21 20 18 17 18 18 18 18 18 19 17 16 15 15 14 12 11 12 12 14 14 12 12 12 12 13 12 13 18 20 22 23 21 20 19 18 19 21 22 23 24
22 22 20 20 20 19 17 18 18 19 19 17 15 15 15 14 13 13 13 13 13 13 13 14 12 13 13 15 17 17 18 18 19 19 20 21 22 23 25 22 24 24 26
22 22 22 20 19 16 18 18 18 19 16 15 15 14 15 16 13 11 11 13 12 12 14 15 15 17 18 19 20 21 21 21 22 23 25 25 24 23 23 25 26 29 27
22 22 22 22 22 17 15 15 11 12 12 12 12 13 14 14 13 13 13 13 13 12 20 21 21 21 21 22 23 24 24 24 24 25 27 26 25 26 26 27 27 30 29
24 23 23 22 22 20 17 16 16 15 14 14 14 14 14 15 15 15 15 16 16 19 25 24 25 24 25 25 26 26 27 26 28 28 28 28 27 28 28 28 27 28 29
27 26 26 25 24 19 18 17 17 17 19 22 20 18 16 17 17 17 18 23 29 28 30 30 30 29 29 29 29 30 30 29 29 29 30 31 32 31 30 30 29 30 31
27 27 27 26 20 19 18 19 20 22 25 31 30 25 26 20 21 21 23 32 36 35 36 34 35 34 33 34 33 34 34 33 32 34 33 33 33 32 32 31 30 28 28
31 27 29 29 28 26 25 25 27 29 30 32 33 33 34 32 35 34 33 36 35 37 36 36 36 37 37 37 37 37 36 34 33 33 32 31 30 30 29 29 28 29 30
32 32 30 32 32 31 31 31 30 32 33 34 32 26 25 35 38 38 38 37 38 38 37 38 38 40 40 40 39 37 36 33 32 30 28 27 26 28 25 25 26 26 26
33 34 34 34 33 32 34 32 32 32 34 34 34 30 25 36 37 38 38 39 39 40 39 39 39 39 38 37 35 35 32 29 28 28 27 26 25 25 24 24 25 24 26
33 33 34 34 34 33 34 36 35 35 36 37 36 36 37 38 39 39 40 41 42 40 40 40 39 35 35 33 30 28 27 26 24 26 26 25 25 26 27 26 25 26 28
34 34 34 35 35 36 36 37 36 35 37 38 39 39 38 40 39 40 40 40 40 38 39 38 36 32 31 29 29 28 27 26 25 25 26 26 25 25 25 25 25 24 24
37 36 35 36 37 37 37 37 36 39 39 37 39 39 41 40 40 40 39 38 37 36 33 32 31 29 29 28 27 26 24 22 23 23 25 28 27 26 23 21 21 21 23
37 37 38 38 38 39 38 36 38 37 36 35 36 39 39 38 37 37 35 35 33 32 30 28 28 29 28 26 25 24 23 20 20 20 21 23 22 21 21 21 21 21 22